Time,TemperatureF,DewpointF,PressureIn,WindDirection,WindDirectionDegrees,WindSpeedMPH,WindSpeedGustMPH,Humidity,HourlyPrecipIn,Conditions,Clouds,dailyrainin,SoftwareType,DateUTC
2013-05-29 00:01:00,48.3,46.9,29.58,SSW,194,0.0,0.0,95,0.00,,,0.00,Wunderground v.1.15,2013-05-28 23:01:00,
2013-05-29 00:06:00,48.3,46.9,29.58,SSW,194,0.0,0.0,95,0.00,,,0.00,Wunderground v.1.15,2013-05-28 23:06:00,
2013-05-29 00:16:00,48.2,46.8,29.58,SSW,194,0.0,0.0,95,0.00,,,0.00,Wunderground v.1.15,2013-05-28 23:16:00,
2013-05-29 00:26:00,48.1,46.5,29.58,SSW,194,0.0,0.0,94,0.00,,,0.00,Wunderground v.1.15,2013-05-28 23:26:00,
2013-05-29 00:36:00,47.9,46.3,29.58,SSW,194,0.0,0.0,94,0.00,,,0.00,Wunderground v.1.15,2013-05-28 23:36:00,
2013-05-29 00:41:00,47.9,46.3,29.58,SSW,194,0.0,0.0,94,0.00,,,0.00,Wunderground v.1.15,2013-05-28 23:41:00,
2013-05-29 00:46:00,47.8,46.2,29.58,SSW,194,0.0,0.0,94,0.00,,,0.00,Wunderground v.1.15,2013-05-28 23:46:00,
2013-05-29 00:56:00,47.7,46.1,29.59,SSW,208,0.0,0.0,94,0.00,,,0.00,Wunderground v.1.15,2013-05-28 23:56:00,
2013-05-29 01:06:00,47.4,45.8,29.58,SSW,208,0.0,0.0,94,0.00,,,0.00,Wunderground v.1.15,2013-05-29 00:06:00,
2013-05-29 01:11:00,47.3,45.7,29.58,SSW,208,0.0,0.0,94,0.00,,,0.00,Wunderground v.1.15,2013-05-29 00:11:00,
2013-05-29 01:21:00,47.2,45.6,29.58,WSW,250,0.0,1.0,94,0.00,,,0.00,Wunderground v.1.15,2013-05-29 00:21:00,
2013-05-29 01:31:00,47.1,45.5,29.59,WSW,257,1.0,1.0,94,0.00,,,0.00,Wunderground v.1.15,2013-05-29 00:31:00,
2013-05-29 01:36:00,47.0,45.4,29.59,WSW,257,0.0,1.0,94,0.00,,,0.00,Wunderground v.1.15,2013-05-29 00:36:00,
2013-05-29 01:46:00,46.9,45.3,29.59,WSW,257,0.0,0.0,94,0.00,,,0.00,Wunderground v.1.15,2013-05-29 00:46:00,
2013-05-29 01:56:00,46.9,45.3,29.59,WSW,254,0.0,0.0,94,0.00,,,0.00,Wunderground v.1.15,2013-05-29 00:56:00,
2013-05-29 02:01:00,46.9,45.5,29.59,WSW,254,0.0,0.0,95,0.00,,,0.00,Wunderground v.1.15,2013-05-29 01:01:00,
2013-05-29 02:11:00,46.8,45.4,29.59,WSW,254,0.0,0.0,95,0.00,,,0.00,Wunderground v.1.15,2013-05-29 01:11:00,
2013-05-29 02:16:00,46.8,45.4,29.59,WSW,254,0.0,0.0,95,0.00,,,0.00,Wunderground v.1.15,2013-05-29 01:16:00,
2013-05-29 02:21:00,46.8,45.2,29.58,WSW,254,0.0,0.0,94,0.00,,,0.00,Wunderground v.1.15,2013-05-29 01:21:00,
2013-05-29 02:31:00,46.7,45.1,29.59,WSW,254,0.0,0.0,94,0.00,,,0.00,Wunderground v.1.15,2013-05-29 01:31:00,
2013-05-29 02:41:00,46.6,45.0,29.59,WSW,254,1.0,1.0,94,0.00,,,0.00,Wunderground v.1.15,2013-05-29 01:41:00,
2013-05-29 02:46:00,46.5,44.9,29.59,West,265,0.0,1.0,94,0.00,,,0.00,Wunderground v.1.15,2013-05-29 01:46:00,
2013-05-29 02:56:00,46.4,44.8,29.59,West,265,0.0,1.0,94,0.00,,,0.00,Wunderground v.1.15,2013-05-29 01:56:00,
2013-05-29 03:01:00,46.4,44.8,29.59,West,265,0.0,0.0,94,0.00,,,0.00,Wunderground v.1.15,2013-05-29 02:01:00,
2013-05-29 03:11:00,46.3,44.7,29.60,West,265,0.0,0.0,94,0.00,,,0.00,Wunderground v.1.15,2013-05-29 02:11:00,
2013-05-29 03:21:00,46.2,44.8,29.60,West,265,0.0,0.0,95,0.00,,,0.00,Wunderground v.1.15,2013-05-29 02:21:00,
2013-05-29 03:31:00,46.2,44.8,29.60,West,265,0.0,0.0,95,0.00,,,0.00,Wunderground v.1.15,2013-05-29 02:31:00,
2013-05-29 03:41:00,46.2,44.8,29.60,West,265,0.0,0.0,95,0.00,,,0.00,Wunderground v.1.15,2013-05-29 02:41:00,
2013-05-29 03:51:00,46.2,44.8,29.60,West,265,0.0,0.0,95,0.00,,,0.00,Wunderground v.1.15,2013-05-29 02:51:00,
2013-05-29 04:01:00,46.1,44.7,29.60,West,265,0.0,0.0,95,0.00,,,0.00,Wunderground v.1.15,2013-05-29 03:01:00,
2013-05-29 04:06:00,46.1,44.5,29.60,West,265,0.0,0.0,94,0.00,,,0.00,Wunderground v.1.15,2013-05-29 03:06:00,
2013-05-29 04:16:00,45.9,44.3,29.60,West,265,0.0,0.0,94,0.00,,,0.00,Wunderground v.1.15,2013-05-29 03:16:00,
2013-05-29 04:26:00,45.7,44.1,29.60,West,265,0.0,0.0,94,0.00,,,0.00,Wunderground v.1.15,2013-05-29 03:26:00,
2013-05-29 04:36:00,45.4,43.8,29.60,West,265,0.0,0.0,94,0.00,,,0.00,Wunderground v.1.15,2013-05-29 03:36:00,
2013-05-29 04:46:00,45.1,43.5,29.61,West,265,1.0,1.0,94,0.00,,,0.00,Wunderground v.1.15,2013-05-29 03:46:00,
2013-05-29 04:56:00,44.9,43.3,29.60,West,265,0.0,1.0,94,0.00,,,0.00,Wunderground v.1.15,2013-05-29 03:56:00,
2013-05-29 05:01:00,44.8,43.2,29.60,West,265,0.0,0.0,94,0.00,,,0.00,Wunderground v.1.15,2013-05-29 04:01:00,
2013-05-29 05:06:00,44.7,43.1,29.61,West,265,0.0,0.0,94,0.00,,,0.00,Wunderground v.1.15,2013-05-29 04:06:00,
2013-05-29 05:16:00,44.5,43.2,29.61,West,265,0.0,0.0,95,0.00,,,0.00,Wunderground v.1.15,2013-05-29 04:16:00,
2013-05-29 05:21:00,44.4,42.8,29.61,West,265,0.0,0.0,94,0.00,,,0.00,Wunderground v.1.15,2013-05-29 04:21:00,
2013-05-29 05:31:00,44.2,42.6,29.61,West,265,0.0,0.0,94,0.00,,,0.00,Wunderground v.1.15,2013-05-29 04:31:00,
2013-05-29 05:36:00,44.0,42.4,29.62,West,265,0.0,0.0,94,0.00,,,0.00,Wunderground v.1.15,2013-05-29 04:36:00,
2013-05-29 05:46:00,43.8,42.5,29.61,West,265,0.0,1.0,95,0.00,,,0.00,Wunderground v.1.15,2013-05-29 04:46:00,
2013-05-29 05:56:00,43.7,42.4,29.62,West,265,0.0,0.0,95,0.00,,,0.00,Wunderground v.1.15,2013-05-29 04:56:00,
2013-05-29 06:01:00,43.7,42.4,29.62,West,265,0.0,0.0,95,0.00,,,0.00,Wunderground v.1.15,2013-05-29 05:01:00,
2013-05-29 06:11:00,43.8,42.5,29.61,West,265,0.0,0.0,95,0.00,,,0.00,Wunderground v.1.15,2013-05-29 05:11:00,
2013-05-29 06:21:00,44.0,42.7,29.61,West,265,0.0,0.0,95,0.00,,,0.00,Wunderground v.1.15,2013-05-29 05:21:00,
2013-05-29 06:26:00,44.2,43.1,29.61,West,265,0.0,0.0,96,0.00,,,0.00,Wunderground v.1.15,2013-05-29 05:26:00,
2013-05-29 06:36:00,44.7,43.6,29.62,West,265,0.0,0.0,96,0.00,,,0.00,Wunderground v.1.15,2013-05-29 05:36:00,
2013-05-29 06:46:00,45.4,44.3,29.63,West,265,0.0,1.0,96,0.00,,,0.00,Wunderground v.1.15,2013-05-29 05:46:00,
2013-05-29 06:56:00,46.0,44.9,29.63,West,265,0.0,0.0,96,0.00,,,0.00,Wunderground v.1.15,2013-05-29 05:56:00,
2013-05-29 07:06:00,46.6,45.5,29.63,West,265,0.0,0.0,96,0.00,,,0.00,Wunderground v.1.15,2013-05-29 06:06:00,
2013-05-29 07:16:00,47.2,45.8,29.64,West,265,0.0,1.0,95,0.00,,,0.00,Wunderground v.1.15,2013-05-29 06:16:00,
2013-05-29 07:21:00,47.3,45.9,29.64,West,265,0.0,0.0,95,0.00,,,0.00,Wunderground v.1.15,2013-05-29 06:21:00,
2013-05-29 07:31:00,47.5,45.9,29.64,West,265,0.0,0.0,94,0.00,,,0.00,Wunderground v.1.15,2013-05-29 06:31:00,
2013-05-29 07:41:00,47.8,45.9,29.64,West,265,0.0,0.0,93,0.00,,,0.00,Wunderground v.1.15,2013-05-29 06:41:00,
2013-05-29 07:46:00,48.3,47.8,29.64,West,265,0.0,0.0,98,0.00,,,0.00,Wunderground v.1.15,2013-05-29 06:46:00,
2013-05-29 07:56:00,49.1,46.9,29.64,West,265,0.0,0.0,92,0.00,,,0.00,Wunderground v.1.15,2013-05-29 06:56:00,
2013-05-29 08:06:00,49.6,46.8,29.64,West,278,0.0,1.0,90,0.00,,,0.00,Wunderground v.1.15,2013-05-29 07:06:00,
2013-05-29 08:11:00,49.8,46.7,29.65,WNW,301,0.0,2.0,89,0.00,,,0.00,Wunderground v.1.15,2013-05-29 07:11:00,
2013-05-29 08:21:00,50.1,47.0,29.64,NW,310,1.0,1.0,89,0.00,,,0.00,Wunderground v.1.15,2013-05-29 07:21:00,
2013-05-29 08:26:00,50.4,47.3,29.65,NW,310,0.0,1.0,89,0.00,,,0.00,Wunderground v.1.15,2013-05-29 07:26:00,
2013-05-29 08:36:00,50.8,47.7,29.65,NW,310,0.0,1.0,89,0.00,,,0.00,Wunderground v.1.15,2013-05-29 07:36:00,
2013-05-29 08:46:00,51.3,47.3,29.65,NW,310,0.0,0.0,86,0.00,,,0.00,Wunderground v.1.15,2013-05-29 07:46:00,
2013-05-29 08:51:00,51.4,47.4,29.65,NW,310,0.0,0.0,86,0.00,,,0.00,Wunderground v.1.15,2013-05-29 07:51:00,
2013-05-29 09:01:00,52.0,47.6,29.66,WNW,296,1.0,2.0,85,0.00,,,0.00,Wunderground v.1.15,2013-05-29 08:01:00,
2013-05-29 09:06:00,52.2,46.9,29.66,WNW,296,1.0,2.0,82,0.00,,,0.00,Wunderground v.1.15,2013-05-29 08:06:00,
2013-05-29 09:16:00,52.4,46.4,29.66,NW,326,1.0,1.0,80,0.00,,,0.00,Wunderground v.1.15,2013-05-29 08:16:00,
2013-05-29 09:26:00,52.6,47.3,29.66,NW,326,0.0,2.0,82,0.00,,,0.00,Wunderground v.1.15,2013-05-29 08:26:00,
2013-05-29 09:36:00,52.8,47.5,29.66,NNW,333,0.0,0.0,82,0.00,,,0.00,Wunderground v.1.15,2013-05-29 08:36:00,
2013-05-29 09:41:00,53.1,47.4,29.66,NNW,333,0.0,1.0,81,0.00,,,0.00,Wunderground v.1.15,2013-05-29 08:41:00,
2013-05-29 09:46:00,53.4,47.0,29.66,NNW,333,0.0,1.0,79,0.00,,,0.00,Wunderground v.1.15,2013-05-29 08:46:00,
2013-05-29 09:56:00,54.2,47.1,29.66,SW,234,0.0,0.0,77,0.00,,,0.00,Wunderground v.1.15,2013-05-29 08:56:00,
2013-05-29 10:06:00,54.8,47.7,29.66,NW,304,0.0,1.0,77,0.00,,,0.00,Wunderground v.1.15,2013-05-29 09:06:00,
2013-05-29 10:16:00,54.7,47.3,29.66,NW,322,1.0,1.0,76,0.00,,,0.00,Wunderground v.1.15,2013-05-29 09:16:00,
2013-05-29 10:21:00,54.7,47.3,29.67,NW,310,1.0,2.0,76,0.00,,,0.00,Wunderground v.1.15,2013-05-29 09:21:00,
2013-05-29 10:31:00,54.7,47.6,29.67,WNW,301,0.0,0.0,77,0.00,,,0.00,Wunderground v.1.15,2013-05-29 09:31:00,
2013-05-29 10:41:00,54.8,47.7,29.67,SW,236,1.0,1.0,77,0.00,,,0.00,Wunderground v.1.15,2013-05-29 09:41:00,
2013-05-29 10:51:00,54.8,48.7,29.67,SSE,154,1.0,2.0,80,0.00,,,0.00,Wunderground v.1.15,2013-05-29 09:51:00,
2013-05-29 11:01:00,55.2,48.8,29.67,NW,311,1.0,1.0,79,0.00,,,0.00,Wunderground v.1.15,2013-05-29 10:01:00,
2013-05-29 11:06:00,55.4,48.7,29.67,NW,304,0.0,1.0,78,0.00,,,0.00,Wunderground v.1.15,2013-05-29 10:06:00,
2013-05-29 11:16:00,55.6,48.5,29.67,SE,128,0.0,0.0,77,0.00,,,0.00,Wunderground v.1.15,2013-05-29 10:16:00,
2013-05-29 11:26:00,55.9,48.8,29.67,NNW,348,0.0,0.0,77,0.00,,,0.00,Wunderground v.1.15,2013-05-29 10:26:00,
2013-05-29 11:31:00,56.0,49.6,29.67,NNW,348,0.0,0.0,79,0.00,,,0.00,Wunderground v.1.15,2013-05-29 10:31:00,
2013-05-29 11:41:00,56.3,48.8,29.67,WSW,257,1.0,2.0,76,0.00,,,0.00,Wunderground v.1.15,2013-05-29 10:41:00,
2013-05-29 11:51:00,56.5,49.0,29.68,NNW,331,1.0,1.0,76,0.00,,,0.00,Wunderground v.1.15,2013-05-29 10:51:00,
2013-05-29 11:56:00,56.3,49.2,29.68,West,268,1.0,1.0,77,0.00,,,0.00,Wunderground v.1.15,2013-05-29 10:56:00,
2013-05-29 12:06:00,55.3,48.6,29.68,NW,317,1.0,2.0,78,0.00,,,0.00,Wunderground v.1.15,2013-05-29 11:06:00,
2013-05-29 12:16:00,54.7,49.0,29.68,South,175,1.0,1.0,81,0.00,,,0.00,Wunderground v.1.15,2013-05-29 11:16:00,
2013-05-29 12:21:00,54.5,49.4,29.68,East,88,0.0,0.0,83,0.00,,,0.00,Wunderground v.1.15,2013-05-29 11:21:00,
2013-05-29 12:31:00,53.8,49.1,29.69,West,265,1.0,1.0,84,0.00,,,0.00,Wunderground v.1.15,2013-05-29 11:31:00,
2013-05-29 12:41:00,53.2,49.1,29.69,West,264,1.0,1.0,86,0.00,,,0.00,Wunderground v.1.15,2013-05-29 11:41:00,
2013-05-29 12:51:00,52.9,49.4,29.69,NNW,345,0.0,1.0,88,0.00,,,0.00,Wunderground v.1.15,2013-05-29 11:51:00,
2013-05-29 13:01:00,52.5,49.0,29.70,NW,304,1.0,1.0,88,0.00,,,0.00,Wunderground v.1.15,2013-05-29 12:01:00,
2013-05-29 13:11:00,52.3,49.2,29.69,WNW,300,1.0,1.0,89,0.00,,,0.00,Wunderground v.1.15,2013-05-29 12:11:00,
2013-05-29 13:21:00,52.3,49.5,29.70,WSW,242,0.0,2.0,90,0.00,,,0.00,Wunderground v.1.15,2013-05-29 12:21:00,
2013-05-29 13:31:00,52.3,49.2,29.70,West,264,1.0,2.0,89,0.00,,,0.00,Wunderground v.1.15,2013-05-29 12:31:00,
2013-05-29 13:41:00,52.1,49.3,29.70,WSW,252,1.0,1.0,90,0.00,,,0.00,Wunderground v.1.15,2013-05-29 12:41:00,
2013-05-29 13:46:00,52.1,49.3,29.70,North,355,0.0,1.0,90,0.00,,,0.00,Wunderground v.1.15,2013-05-29 12:46:00,
2013-05-29 13:56:00,51.9,49.1,29.70,NW,306,0.0,2.0,90,0.00,,,0.00,Wunderground v.1.15,2013-05-29 12:56:00,
2013-05-29 14:06:00,51.8,49.0,29.70,NW,316,1.0,1.0,90,0.00,,,0.00,Wunderground v.1.15,2013-05-29 13:06:00,
2013-05-29 14:11:00,51.7,48.9,29.70,NW,320,1.0,1.0,90,0.00,,,0.00,Wunderground v.1.15,2013-05-29 13:11:00,
2013-05-29 14:21:00,51.9,49.1,29.71,NW,320,0.0,0.0,90,0.00,,,0.00,Wunderground v.1.15,2013-05-29 13:21:00,
2013-05-29 14:26:00,51.8,49.0,29.70,NW,309,1.0,1.0,90,0.00,,,0.00,Wunderground v.1.15,2013-05-29 13:26:00,
2013-05-29 14:36:00,51.9,49.4,29.70,WSW,257,0.0,2.0,91,0.00,,,0.00,Wunderground v.1.15,2013-05-29 13:36:00,
2013-05-29 14:46:00,52.1,49.6,29.71,WSW,244,1.0,4.0,91,0.00,,,0.00,Wunderground v.1.15,2013-05-29 13:46:00,
2013-05-29 14:51:00,52.1,49.3,29.71,SW,215,1.0,1.0,90,0.00,,,0.00,Wunderground v.1.15,2013-05-29 13:51:00,
2013-05-29 15:01:00,51.9,48.8,29.71,NNW,339,1.0,1.0,89,0.00,,,0.00,Wunderground v.1.15,2013-05-29 14:01:00,
2013-05-29 15:11:00,52.1,49.3,29.71,SW,236,1.0,1.0,90,0.00,,,0.00,Wunderground v.1.15,2013-05-29 14:11:00,
2013-05-29 15:21:00,52.7,49.5,29.71,West,280,1.0,1.0,89,0.00,,,0.00,Wunderground v.1.15,2013-05-29 14:21:00,
2013-05-29 15:31:00,53.7,50.2,29.71,WNW,302,1.0,1.0,88,0.00,,,0.00,Wunderground v.1.15,2013-05-29 14:31:00,
2013-05-29 15:41:00,54.3,50.5,29.70,NW,304,1.0,1.0,87,0.00,,,0.00,Wunderground v.1.15,2013-05-29 14:41:00,
2013-05-29 15:51:00,54.5,50.4,29.70,WNW,296,1.0,2.0,86,0.00,,,0.00,Wunderground v.1.15,2013-05-29 14:51:00,
2013-05-29 16:01:00,54.4,50.3,29.70,WNW,282,1.0,1.0,86,0.00,,,0.00,Wunderground v.1.15,2013-05-29 15:01:00,
2013-05-29 16:06:00,54.3,50.2,29.70,NW,324,1.0,2.0,86,0.00,,,0.00,Wunderground v.1.15,2013-05-29 15:06:00,
2013-05-29 16:16:00,54.2,50.1,29.70,West,259,1.0,1.0,86,0.00,,,0.00,Wunderground v.1.15,2013-05-29 15:16:00,
2013-05-29 16:26:00,54.1,50.3,29.70,WNW,289,1.0,1.0,87,0.00,,,0.00,Wunderground v.1.15,2013-05-29 15:26:00,
2013-05-29 16:31:00,54.0,50.2,29.70,NW,310,1.0,2.0,87,0.00,,,0.00,Wunderground v.1.15,2013-05-29 15:31:00,
2013-05-29 16:41:00,53.9,50.1,29.70,NW,310,1.0,1.0,87,0.00,,,0.00,Wunderground v.1.15,2013-05-29 15:41:00,
2013-05-29 16:46:00,53.9,50.4,29.70,WNW,289,0.0,1.0,88,0.00,,,0.00,Wunderground v.1.15,2013-05-29 15:46:00,
2013-05-29 16:56:00,53.8,50.3,29.70,WNW,298,1.0,4.0,88,0.00,,,0.00,Wunderground v.1.15,2013-05-29 15:56:00,
2013-05-29 17:06:00,53.7,50.5,29.70,WNW,302,1.0,2.0,89,0.00,,,0.00,Wunderground v.1.15,2013-05-29 16:06:00,
2013-05-29 17:11:00,53.6,50.4,29.70,NW,325,1.0,2.0,89,0.00,,,0.00,Wunderground v.1.15,2013-05-29 16:11:00,
2013-05-29 17:21:00,53.5,50.6,29.70,WNW,289,1.0,1.0,90,0.00,,,0.00,Wunderground v.1.15,2013-05-29 16:21:00,
2013-05-29 17:31:00,53.4,50.5,29.71,West,279,1.0,1.0,90,0.00,,,0.00,Wunderground v.1.15,2013-05-29 16:31:00,
2013-05-29 17:41:00,53.5,50.9,29.71,WNW,295,1.0,1.0,91,0.00,,,0.00,Wunderground v.1.15,2013-05-29 16:41:00,
2013-05-29 17:51:00,53.5,50.9,29.71,West,259,1.0,1.0,91,0.00,,,0.00,Wunderground v.1.15,2013-05-29 16:51:00,
2013-05-29 18:01:00,53.4,50.8,29.72,NW,306,1.0,1.0,91,0.00,,,0.01,Wunderground v.1.15,2013-05-29 17:01:00,
2013-05-29 18:06:00,53.4,51.1,29.72,NW,316,1.0,1.0,92,0.00,,,0.01,Wunderground v.1.15,2013-05-29 17:06:00,
2013-05-29 18:16:00,53.5,51.2,29.72,WNW,302,0.0,3.0,92,0.00,,,0.01,Wunderground v.1.15,2013-05-29 17:16:00,
2013-05-29 18:26:00,53.6,51.3,29.72,NW,324,0.0,1.0,92,0.00,,,0.01,Wunderground v.1.15,2013-05-29 17:26:00,
2013-05-29 18:36:00,53.7,51.7,29.72,NW,315,0.0,0.0,93,0.00,,,0.01,Wunderground v.1.15,2013-05-29 17:36:00,
2013-05-29 18:41:00,53.9,51.9,29.73,WNW,296,0.0,1.0,93,0.00,,,0.01,Wunderground v.1.15,2013-05-29 17:41:00,
2013-05-29 18:51:00,54.0,52.0,29.73,WNW,301,0.0,1.0,93,0.00,,,0.01,Wunderground v.1.15,2013-05-29 17:51:00,
2013-05-29 19:01:00,54.1,52.1,29.73,WNW,301,0.0,0.0,93,0.00,,,0.01,Wunderground v.1.15,2013-05-29 18:01:00,
2013-05-29 19:06:00,54.2,52.2,29.73,WNW,301,0.0,0.0,93,0.00,,,0.01,Wunderground v.1.15,2013-05-29 18:06:00,
2013-05-29 19:16:00,54.2,51.9,29.74,WSW,247,0.0,0.0,92,0.00,,,0.01,Wunderground v.1.15,2013-05-29 18:16:00,
2013-05-29 19:21:00,54.4,52.1,29.74,South,178,0.0,1.0,92,0.00,,,0.01,Wunderground v.1.15,2013-05-29 18:21:00,
2013-05-29 19:26:00,54.4,52.1,29.74,SE,144,1.0,1.0,92,0.00,,,0.01,Wunderground v.1.15,2013-05-29 18:26:00,
2013-05-29 19:36:00,54.4,52.1,29.74,NE,34,0.0,1.0,92,0.00,,,0.01,Wunderground v.1.15,2013-05-29 18:36:00,
2013-05-29 19:41:00,54.4,52.1,29.74,East,83,0.0,0.0,92,0.00,,,0.01,Wunderground v.1.15,2013-05-29 18:41:00,
2013-05-29 19:51:00,54.4,52.1,29.74,NNE,15,0.0,1.0,92,0.00,,,0.01,Wunderground v.1.15,2013-05-29 18:51:00,
2013-05-29 20:01:00,54.3,51.7,29.75,South,169,0.0,0.0,91,0.00,,,0.01,Wunderground v.1.15,2013-05-29 19:01:00,
2013-05-29 20:06:00,54.3,51.7,29.75,West,272,0.0,1.0,91,0.00,,,0.01,Wunderground v.1.15,2013-05-29 19:06:00,
2013-05-29 20:16:00,54.2,51.6,29.75,SSE,150,0.0,1.0,91,0.00,,,0.01,Wunderground v.1.15,2013-05-29 19:16:00,
2013-05-29 20:21:00,54.2,51.6,29.75,SSE,150,0.0,0.0,91,0.00,,,0.01,Wunderground v.1.15,2013-05-29 19:21:00,
2013-05-29 20:31:00,54.2,51.6,29.76,SSE,161,0.0,0.0,91,0.00,,,0.01,Wunderground v.1.15,2013-05-29 19:31:00,
2013-05-29 20:41:00,54.1,51.5,29.76,SSE,161,0.0,0.0,91,0.00,,,0.01,Wunderground v.1.15,2013-05-29 19:41:00,
2013-05-29 20:51:00,54.0,51.4,29.77,East,101,0.0,0.0,91,0.00,,,0.01,Wunderground v.1.15,2013-05-29 19:51:00,
2013-05-29 21:01:00,54.0,51.4,29.77,SSE,153,0.0,0.0,91,0.00,,,0.01,Wunderground v.1.15,2013-05-29 20:01:00,
2013-05-29 21:06:00,53.9,51.3,29.77,SSE,153,0.0,0.0,91,0.00,,,0.01,Wunderground v.1.15,2013-05-29 20:06:00,
2013-05-29 21:11:00,53.9,51.3,29.77,ESE,123,0.0,0.0,91,0.00,,,0.01,Wunderground v.1.15,2013-05-29 20:11:00,
2013-05-29 21:16:00,53.8,51.2,29.77,ESE,123,0.0,0.0,91,0.00,,,0.01,Wunderground v.1.15,2013-05-29 20:16:00,
2013-05-29 21:21:00,53.8,51.2,29.77,ESE,122,0.0,0.0,91,0.00,,,0.01,Wunderground v.1.15,2013-05-29 20:21:00,
2013-05-29 21:31:00,53.7,51.1,29.77,ESE,110,0.0,0.0,91,0.00,,,0.01,Wunderground v.1.15,2013-05-29 20:31:00,
2013-05-29 21:41:00,53.6,51.0,29.78,ESE,110,0.0,0.0,91,0.00,,,0.01,Wunderground v.1.15,2013-05-29 20:41:00,
2013-05-29 21:51:00,53.5,51.2,29.77,ESE,110,0.0,0.0,92,0.00,,,0.01,Wunderground v.1.15,2013-05-29 20:51:00,
2013-05-29 21:56:00,53.4,51.1,29.78,SE,143,0.0,0.0,92,0.00,,,0.01,Wunderground v.1.15,2013-05-29 20:56:00,
2013-05-29 22:06:00,53.3,50.7,29.78,SE,143,0.0,0.0,91,0.00,,,0.01,Wunderground v.1.15,2013-05-29 21:06:00,
2013-05-29 22:16:00,53.1,50.5,29.78,SE,146,0.0,0.0,91,0.00,,,0.01,Wunderground v.1.15,2013-05-29 21:16:00,
2013-05-29 22:21:00,53.0,50.7,29.78,SE,146,0.0,0.0,92,0.00,,,0.01,Wunderground v.1.15,2013-05-29 21:21:00,
2013-05-29 22:31:00,52.7,50.4,29.78,SE,146,0.0,0.0,92,0.00,,,0.01,Wunderground v.1.15,2013-05-29 21:31:00,
2013-05-29 22:41:00,52.5,50.2,29.78,SE,146,0.0,0.0,92,0.00,,,0.01,Wunderground v.1.15,2013-05-29 21:41:00,
2013-05-29 22:51:00,52.3,50.0,29.78,SE,146,0.0,0.0,92,0.00,,,0.01,Wunderground v.1.15,2013-05-29 21:51:00,
2013-05-29 23:01:00,52.2,49.9,29.78,SE,146,0.0,0.0,92,0.00,,,0.01,Wunderground v.1.15,2013-05-29 22:01:00,
2013-05-29 23:11:00,52.1,50.1,29.79,SSE,147,0.0,0.0,93,0.00,,,0.01,Wunderground v.1.15,2013-05-29 22:11:00,
2013-05-29 23:21:00,52.1,50.1,29.79,SSE,147,0.0,0.0,93,0.00,,,0.01,Wunderground v.1.15,2013-05-29 22:21:00,
2013-05-29 23:31:00,52.3,50.3,29.78,SSE,147,0.0,0.0,93,0.00,,,0.01,Wunderground v.1.15,2013-05-29 22:31:00,
2013-05-29 23:36:00,52.3,50.3,29.79,SSE,147,0.0,0.0,93,0.00,,,0.01,Wunderground v.1.15,2013-05-29 22:36:00,
2013-05-29 23:46:00,52.4,50.4,29.79,NNW,345,0.0,2.0,93,0.00,,,0.01,Wunderground v.1.15,2013-05-29 22:46:00,
2013-05-29 23:56:00,52.4,50.4,29.79,NNW,345,0.0,0.0,93,0.00,,,0.01,Wunderground v.1.15,2013-05-29 22:56:00,